Location: Berville
(49.1893°N, 2.0748°E)
Time: 16:44:41
(UTC+00:00)

CSL-04 Rocket - Pass Details

Date: 08 February 2023
Orbit: 806 x 859 km, 98.8° (Epoch: 30 March)

Event Time Altitude Azimuth Distance (km) Brightness Sun altitude
Exits shadow 19:01:25 35° 121° (ESE) 1,319 4.2 -20.2°
Maximum altitude 19:03:21 51° 68° (ENE) 1,037 3.8 -20.6°
Drops below altitude 10° 19:08:36 10° 354° (N) 2,464 6.2 -21.4°
Sets 19:11:02 0° 349° (N) 3,411 7.0 -21.8°
